When you browse on this site, cookies collect data to enhance your experience and personalize the content and advertising you see.
Visit our Privacy Policy to learn more. By continuing to use the site, you agree to this use of cookies and data.
  • en France
  • Liste des pays
  • À 7 jours
  • Température de l'eau
  • Carte satellitaire
  • Carte météo
  • Widgets météo
  • user-avatar
    Se connecter

    Météo par heure à Luanda

    Ce jour, 22 Janvier, Mardi

    Heure Température Précipitation Vent Pression Humidité
    00:00 +28°C° 0 mm 2 m/s 754 mmHg 81%
    01:00 +28°C° 0 mm 2 m/s 754 mmHg 82%
    02:00 +28°C° 0 mm 2 m/s 754 mmHg 83%
    03:00 +28°C° 0 mm 2 m/s 754 mmHg 84%
    04:00 +28°C° 0 mm 2 m/s 754 mmHg 85%
    05:00 +28°C° 0.1 mm 2 m/s 754 mmHg 84%
    06:00 +28°C° 0.1 mm 2 m/s 754 mmHg 83%
    07:00 +28°C° 0.1 mm 2 m/s 754 mmHg 82%
    08:00 +29°C° 0.1 mm 2 m/s 755 mmHg 76%
    09:00 +30°C° 0.1 mm 2 m/s 755 mmHg 70%
    10:00 +32°C° 0.1 mm 2 m/s 755 mmHg 64%
    11:00 +33°C° 0 mm 3 m/s 755 mmHg 61%
    12:00 +34°C° 0 mm 4 m/s 754 mmHg 58%
    13:00 +35°C° 0 mm 5 m/s 753 mmHg 55%
    14:00 +34°C° 0 mm 5 m/s 753 mmHg 56%
    15:00 +34°C° 0 mm 6 m/s 752 mmHg 58%
    16:00 +34°C° 0 mm 6 m/s 752 mmHg 59%
    17:00 +32°C° 0 mm 5 m/s 752 mmHg 64%
    18:00 +30°C° 0 mm 5 m/s 753 mmHg 69%
    19:00 +29°C° 0 mm 4 m/s 753 mmHg 74%
    20:00 +29°C° 0 mm 4 m/s 754 mmHg 76%
    21:00 +29°C° 0 mm 4 m/s 754 mmHg 77%
    22:00 +28°C° 0 mm 4 m/s 755 mmHg 79%
    23:00 +28°C° 0 mm 3 m/s 755 mmHg 80%

    Demain, 23 Janvier, Mercredi

    Heure Température Précipitation Vent Pression Humidité
    00:00 +28°C° 0 mm 3 m/s 755 mmHg 81%
    01:00 +28°C° 0 mm 3 m/s 755 mmHg 82%
    02:00 +28°C° 0 mm 3 m/s 754 mmHg 83%
    03:00 +28°C° 0 mm 3 m/s 754 mmHg 83%
    04:00 +27°C° 0 mm 3 m/s 754 mmHg 83%
    05:00 +28°C° 0.1 mm 3 m/s 754 mmHg 82%
    06:00 +28°C° 0.1 mm 3 m/s 754 mmHg 82%
    07:00 +28°C° 0.1 mm 3 m/s 754 mmHg 81%
    08:00 +29°C° 0.1 mm 3 m/s 755 mmHg 77%
    09:00 +29°C° 0.1 mm 3 m/s 755 mmHg 73%
    10:00 +30°C° 0.1 mm 2 m/s 756 mmHg 69%
    11:00 +30°C° 0 mm 2 m/s 755 mmHg 67%
    12:00 +31°C° 0 mm 3 m/s 755 mmHg 65%
    13:00 +31°C° 0 mm 3 m/s 754 mmHg 63%
    14:00 +31°C° 0 mm 3 m/s 753 mmHg 65%
    15:00 +30°C° 0 mm 3 m/s 753 mmHg 67%
    16:00 +30°C° 0 mm 3 m/s 752 mmHg 69%
    17:00 +30°C° 0 mm 3 m/s 752 mmHg 71%
    18:00 +29°C° 0 mm 2 m/s 753 mmHg 72%
    19:00 +29°C° 0 mm 2 m/s 753 mmHg 73%
    20:00 +28°C° 0 mm 2 m/s 753 mmHg 74%
    21:00 +28°C° 0 mm 2 m/s 754 mmHg 75%
    22:00 +28°C° 0 mm 2 m/s 754 mmHg 76%
    23:00 +27°C° 0 mm 2 m/s 754 mmHg 76%

    Après-demain, 24 Janvier, Jeudi

    Heure Température Précipitation Vent Pression Humidité
    00:00 +27°C° 0 mm 2 m/s 754 mmHg 77%
    01:00 +27°C° 0 mm 2 m/s 753 mmHg 78%
    02:00 +27°C° 0 mm 2 m/s 753 mmHg 78%
    03:00 +27°C° 0 mm 2 m/s 753 mmHg 77%
    04:00 +27°C° 0 mm 3 m/s 753 mmHg 77%
    05:00 +27°C° 0 mm 2 m/s 753 mmHg 77%
    06:00 +27°C° 0 mm 2 m/s 753 mmHg 77%
    07:00 +27°C° 0 mm 2 m/s 753 mmHg 78%
    08:00 +29°C° 0 mm 1 m/s 754 mmHg 70%
    09:00 +31°C° 0 mm 1 m/s 754 mmHg 63%
    10:00 +30°C° 0 mm 0 m/s 754 mmHg 55%
    11:00 +34°C° 0 mm 2 m/s 753 mmHg 53%
    12:00 +35°C° 0 mm 3 m/s 753 mmHg 51%
    13:00 +35°C° 0 mm 5 m/s 752 mmHg 49%
    14:00 +35°C° 0 mm 5 m/s 751 mmHg 53%
    15:00 +34°C° 0 mm 6 m/s 751 mmHg 56%
    16:00 +33°C° 0 mm 6 m/s 750 mmHg 60%
    17:00 +32°C° 0 mm 6 m/s 750 mmHg 64%
    18:00 +30°C° 0 mm 5 m/s 751 mmHg 67%
    19:00 +29°C° 0 mm 5 m/s 751 mmHg 71%
    20:00 +29°C° 0 mm 4 m/s 752 mmHg 73%
    21:00 +29°C° 0 mm 4 m/s 753 mmHg 75%
    22:00 +29°C° 0 mm 3 m/s 753 mmHg 77%
    23:00 +28°C° 0 mm 3 m/s 753 mmHg 78%

    25 Janvier, Vendredi

    Heure Température Précipitation Vent Pression Humidité
    00:00 +28°C° 0 mm 3 m/s 753 mmHg 79%
    01:00 +28°C° 0 mm 2 m/s 752 mmHg 81%
    02:00 +28°C° 0 mm 2 m/s 752 mmHg 81%
    03:00 +28°C° 0 mm 2 m/s 752 mmHg 82%
    04:00 +27°C° 0 mm 2 m/s 752 mmHg 82%
    05:00 +28°C° 0.1 mm 2 m/s 752 mmHg 81%
    06:00 +28°C° 0.1 mm 2 m/s 753 mmHg 81%
    07:00 +28°C° 0.1 mm 2 m/s 753 mmHg 80%
    08:00 +29°C° 0.1 mm 1 m/s 754 mmHg 76%
    09:00 +29°C° 0.1 mm 1 m/s 754 mmHg 72%
    10:00 +30°C° 0.1 mm 1 m/s 754 mmHg 68%
    11:00 +31°C° 0 mm 1 m/s 753 mmHg 63%
    12:00 +32°C° 0 mm 2 m/s 753 mmHg 59%
    13:00 +34°C° 0 mm 3 m/s 752 mmHg 55%
    14:00 +34°C° 0 mm 3 m/s 751 mmHg 56%
    15:00 +34°C° 0 mm 4 m/s 751 mmHg 57%
    16:00 +34°C° 0 mm 4 m/s 750 mmHg 57%
    17:00 +33°C° 0 mm 4 m/s 751 mmHg 63%
    18:00 +32°C° 0 mm 4 m/s 751 mmHg 68%
    19:00 +29°C° 0 mm 4 m/s 752 mmHg 73%
    20:00 +29°C° 0 mm 4 m/s 752 mmHg 75%
    21:00 +29°C° 0 mm 3 m/s 753 mmHg 76%
    22:00 +28°C° 0 mm 3 m/s 754 mmHg 78%
    23:00 +28°C° 0 mm 3 m/s 754 mmHg 79%

    26 Janvier, Samedi

    Heure Température Précipitation Vent Pression Humidité
    00:00 +28°C° 0 mm 2 m/s 753 mmHg 80%
    01:00 +28°C° 0 mm 2 m/s 753 mmHg 81%
    02:00 +28°C° 0 mm 2 m/s 753 mmHg 82%
    03:00 +27°C° 0 mm 2 m/s 753 mmHg 83%
    04:00 +27°C° 0 mm 2 m/s 753 mmHg 84%
    05:00 +27°C° 0 mm 2 m/s 753 mmHg 83%
    06:00 +27°C° 0 mm 2 m/s 754 mmHg 83%
    07:00 +28°C° 0 mm 2 m/s 754 mmHg 82%
    08:00 +29°C° 0 mm 2 m/s 754 mmHg 74%
    09:00 +31°C° 0 mm 1 m/s 755 mmHg 66%
    10:00 +33°C° 0 mm 1 m/s 755 mmHg 59%
    11:00 +34°C° 0 mm 2 m/s 754 mmHg 56%
    12:00 +35°C° 0 mm 3 m/s 754 mmHg 54%
    13:00 +35°C° 0 mm 4 m/s 753 mmHg 51%
    14:00 +35°C° 0 mm 4 m/s 753 mmHg 52%
    15:00 +35°C° 0 mm 5 m/s 752 mmHg 53%
    16:00 +34°C° 0 mm 5 m/s 752 mmHg 53%
    17:00 +33°C° 0 mm 5 m/s 752 mmHg 59%
    18:00 +32°C° 0 mm 4 m/s 753 mmHg 64%
    19:00 +30°C° 0 mm 4 m/s 753 mmHg 69%
    20:00 +29°C° 0 mm 4 m/s 754 mmHg 71%
    21:00 +29°C° 0 mm 4 m/s 754 mmHg 73%
    22:00 +29°C° 0 mm 4 m/s 755 mmHg 76%
    23:00 +28°C° 0 mm 4 m/s 754 mmHg 77%

    27 Janvier, Dimanche

    Heure Température Précipitation Vent Pression Humidité
    00:00 +28°C° 0 mm 3 m/s 754 mmHg 78%
    01:00 +28°C° 0 mm 3 m/s 754 mmHg 80%
    02:00 +28°C° 0 mm 3 m/s 753 mmHg 80%
    03:00 +28°C° 0 mm 3 m/s 753 mmHg 81%
    04:00 +27°C° 0 mm 3 m/s 753 mmHg 82%
    05:00 +27°C° 0 mm 3 m/s 753 mmHg 81%
    06:00 +28°C° 0 mm 2 m/s 753 mmHg 81%
    07:00 +28°C° 0 mm 2 m/s 754 mmHg 81%
    08:00 +28°C° 0.1 mm 2 m/s 754 mmHg 77%
    09:00 +29°C° 0.1 mm 2 m/s 754 mmHg 73%
    10:00 +29°C° 0.1 mm 1 m/s 755 mmHg 70%
    11:00 +31°C° 0 mm 2 m/s 754 mmHg 62%
    12:00 +34°C° 0 mm 3 m/s 753 mmHg 55%
    13:00 +35°C° 0 mm 3 m/s 752 mmHg 48%
    14:00 +35°C° 0 mm 4 m/s 752 mmHg 49%
    15:00 +35°C° 0 mm 4 m/s 751 mmHg 51%
    16:00 +35°C° 0 mm 5 m/s 750 mmHg 53%
    17:00 +33°C° 0 mm 4 m/s 751 mmHg 58%
    18:00 +32°C° 0 mm 4 m/s 751 mmHg 63%
    19:00 +29°C° 0 mm 3 m/s 751 mmHg 68%
    20:00 +29°C° 0 mm 3 m/s 752 mmHg 71%
    21:00 +29°C° 0 mm 3 m/s 752 mmHg 73%
    22:00 +28°C° 0 mm 3 m/s 753 mmHg 75%
    23:00 +28°C° 0 mm 3 m/s 753 mmHg 78%
    Voir plus